Flag for United Kingdom Weather past 2 weeks in Market Harborough, England, United Kingdom

Now
53 °F

Cool.


Feels Like: 49 °F
Forecast: 49 / 53 °F
Wind: 15 mph from Southwest

Location: Church Lawford

Current Time: Dec 22, 2014 at 8:15:17 AM

Latest Report: Dec 22, 2014 at 7:00 AM


Visibility: 31 mi

Pressure: 29.94 "Hg

Humidity: 80%

Dew point: 47 °F

Location of Market HarboroughLocation

Historic Weather in Market Harborough — Graph

°F

Market Harborough temperature yesterday

Maximum temperature yesterday: 52 °F (at 10:00 PM)
Minimum temperature yesterday: 39 °F (at 3:00 AM)
Average temperature yesterday: 46 °F

Past Weeks' High & Low Weather Summary

 TemperatureHumidityPressure
High56 °F (Dec 18, 1:00 PM)100% (Dec 13, 10:00 AM)30.42 "Hg (Dec 13, 10:00 AM)
Low29 °F (Dec 13, 7:00 AM)63% (Dec 7, 3:00 PM)29.15 "Hg (Dec 12, 4:00 AM)
Average43 °F87%29.90 "Hg
* Reported Dec 7 7:00 AM — Dec 22 7:00 AM, Market Harborough, Weather by CustomWeather, © 2014

Note: Actual official high and low records may vary slightly from our data, if they occured in-between our weather recording intervals... More about our weather records

Advertising

Market Harborough weather history for previous 24 hours

 ConditionsComfort  
Time TempWeatherWind HumidityBarometerVisibility
7:00 AM
Dec 22
53 °FCool.15 mph80%29.94 "Hg31 mi
6:00 AM53 °FCool.14 mph84%29.95 "Hg31 mi
5:00 AM53 °FCool.12 mph88%29.96 "Hg28 mi
4:00 AM52 °FCool.15 mph90%29.96 "Hg31 mi
3:00 AM52 °FCool.15 mph91%29.98 "Hg31 mi
2:00 AM52 °FCool.12 mph91%30.01 "Hg4 mi
1:00 AM52 °FCool.14 mph91%30.02 "Hg31 mi
12:00 AM52 °FCool.14 mph92%30.03 "Hg22 mi
11:00 PM
Dec 21
52 °FCool.13 mph91%30.05 "Hg19 mi
10:00 PM52 °FCool.14 mph89%30.06 "Hg25 mi
8:00 PM52 °FCool.15 mph89%30.08 "Hg28 mi
7:00 PM51 °FCool.13 mph88%30.09 "Hg25 mi
6:00 PM50 °FCool.9 mph88%30.11 "Hg31 mi
5:00 PM50 °FCool.12 mph86%30.13 "Hg31 mi
4:00 PM49 °FCool.10 mph90%30.16 "Hg31 mi
3:00 PM49 °FCool.12 mph87%30.18 "Hg22 mi
2:00 PM49 °FCool.12 mph85%30.20 "Hg22 mi
1:00 PM49 °FCool.13 mph83%30.21 "Hg31 mi
12:00 PM48 °FCool.12 mph84%30.24 "Hg28 mi
11:00 AM47 °FCool.13 mph87%30.26 "Hg19 mi
10:00 AM45 °FSmoke.10 mph92%30.28 "Hg25 mi
9:00 AM44 °FQuite cool.7 mph92%30.29 "Hg22 mi
8:00 AM44 °FQuite cool.8 mph91%30.29 "Hg31 mi
Weather by CustomWeather, © 2014

See weather overviewHow to use our weather pages